contact:dominique.lefevre@mio.osupytheas.fr, maurice.libes@osupytheas.fr, didier.mallarino@osupytheas.fr
Project:EMSO http://www.emso-fr.org/EMSO-France
Depth: 2436.0 m
Title:EMSO Ligure Ouest : Data MII capteur AQUADOPP
Date,Latitude,Longitude,X_East,Y_North,Z_Up,Amplitude_X,Amplitude_Y,Amplitude_Z,Batterie,SoundSpeed,Heading,Pitch,Roll,Pressure,TIS,Speed,Direction
, degrees North, degrees East, m.s-1, m.s-1,m.s-1, 1, 1, 1, Volt, m.s-1, degree, degree, degree, dbar, degree_C, m.s-1, degree
2020-07-09T00:04:03,42.805,6.029,0.021,-0.014,-0.024,105.0,112.0,102.0,13.4,1505.2,325.4,-0.7,1.8,2470.506,13.3,0.025,123.7
2020-07-09T00:07:03,42.805,6.029,0.036,0.008,0.007,105.0,110.0,103.0,13.4,1505.3,326.5,-0.7,1.8,2470.482,13.31,0.036,77.5
2020-07-09T00:10:03,42.805,6.029,0.017,0.001,0.0,105.0,110.0,102.0,13.4,1505.3,325.9,-0.7,1.8,2470.494,13.31,0.017,86.6
2020-07-09T00:13:03,42.805,6.029,0.029,0.0,0.005,104.0,112.0,103.0,13.4,1505.3,326.3,-0.7,1.8,2470.503,13.32,0.028,90.0
2020-07-09T00:16:03,42.805,6.029,0.042,-0.005,-0.035,105.0,112.0,102.0,13.4,1505.3,323.7,-0.7,1.8,2470.52,13.32,0.042,96.8
2020-07-09T00:19:03,42.805,6.029,0.046,0.0,-0.013,105.0,112.0,102.0,13.4,1505.3,325.2,-0.7,1.8,2470.504,13.32,0.046,90.0
2020-07-09T00:22:03,42.805,6.029,0.059,-0.006,-0.019,104.0,109.0,102.0,13.4,1505.3,323.2,-0.7,1.8,2470.502,13.32,0.059,95.8
2020-07-09T00:25:03,42.805,6.029,0.049,0.017,-0.032,104.0,112.0,102.0,13.4,1505.3,327.2,-0.7,1.8,2470.474,13.32,0.051,70.9
2020-07-09T00:28:03,42.805,6.029,0.03,0.004,-0.004,105.0,113.0,102.0,13.4,1505.3,326.1,-0.7,1.8,2470.451,13.32,0.03,82.4
2020-07-09T00:31:03,42.805,6.029,0.015,0.006,-0.031,105.0,112.0,103.0,13.4,1505.3,326.8,-0.7,1.8,2470.467,13.32,0.016,68.2
2020-07-09T00:34:03,42.805,6.029,0.046,-0.017,-0.027,104.0,110.0,102.0,13.4,1505.3,323.9,-0.7,1.8,2470.453,13.32,0.049,110.3
2020-07-09T00:37:03,42.805,6.029,0.041,0.006,-0.007,105.0,109.0,102.0,13.3,1505.3,325.0,-0.7,1.8,2470.477,13.32,0.041,81.7
2020-07-09T00:40:03,42.805,6.029,0.019,-0.005,-0.002,105.0,110.0,103.0,13.4,1505.3,326.0,-0.7,1.8,2470.45,13.32,0.019,104.7
2020-07-09T00:43:03,42.805,6.029,0.025,-0.012,-0.029,105.0,111.0,103.0,13.4,1505.3,324.2,-0.7,1.8,2470.454,13.32,0.027,115.6
2020-07-09T00:46:03,42.805,6.029,0.025,0.006,0.005,106.0,108.0,102.0,13.4,1505.3,325.0,-0.7,1.8,2470.49,13.32,0.025,76.5
2020-07-09T00:49:03,42.805,6.029,0.026,-0.008,-0.006,105.0,109.0,102.0,13.4,1505.3,326.3,-0.7,1.8,2470.447,13.32,0.027,107.1
2020-07-09T00:52:03,42.805,6.029,0.059,-0.003,-0.002,105.0,108.0,102.0,13.4,1505.3,323.0,-0.7,1.8,2470.433,13.32,0.059,92.9
2020-07-09T00:55:03,42.805,6.029,0.061,-0.004,0.02,105.0,109.0,102.0,13.4,1505.3,325.6,-0.7,1.8,2470.414,13.32,0.061,93.7
2020-07-09T00:58:03,42.805,6.029,0.013,-0.024,-0.008,105.0,111.0,103.0,13.4,1505.3,326.4,-0.7,1.8,2470.468,13.32,0.027,151.6
2020-07-09T01:04:03,42.805,6.029,0.037,-0.001,-0.021,106.0,111.0,104.0,13.3,1505.2,324.8,-0.7,1.8,2470.449,13.3,0.037,91.5
2020-07-09T01:07:03,42.805,6.029,0.055,0.009,0.016,106.0,108.0,103.0,13.4,1505.3,323.7,-0.7,1.9,2470.467,13.31,0.055,80.7
2020-07-09T01:10:03,42.805,6.029,0.049,-0.006,-0.029,107.0,110.0,103.0,13.3,1505.3,327.9,-0.7,1.8,2470.438,13.31,0.049,97.0
2020-07-09T01:13:03,42.805,6.029,0.024,0.003,0.042,105.0,111.0,102.0,13.4,1505.3,324.1,-0.7,1.9,2470.48,13.32,0.024,82.9
2020-07-09T01:16:03,42.805,6.029,0.029,-0.004,0.003,106.0,109.0,103.0,13.4,1505.3,325.1,-0.7,1.9,2470.464,13.32,0.029,97.8
2020-07-09T01:19:03,42.805,6.029,0.03,0.003,-0.018,104.0,112.0,102.0,13.3,1505.3,324.8,-0.7,1.8,2470.467,13.32,0.03,84.3
2020-07-09T01:22:03,42.805,6.029,0.027,-0.01,0.002,106.0,109.0,103.0,13.4,1505.3,324.7,-0.7,1.8,2470.39,13.32,0.028,110.3
2020-07-09T01:25:03,42.805,6.029,0.025,-0.02,-0.016,104.0,110.0,103.0,13.4,1505.3,324.1,-0.7,1.8,2470.458,13.32,0.032,128.7
2020-07-09T01:28:03,42.805,6.029,0.029,-0.002,-0.012,104.0,109.0,102.0,13.3,1505.3,327.3,-0.7,1.8,2470.444,13.32,0.029,93.9
2020-07-09T01:31:03,42.805,6.029,0.045,-0.011,-0.01,106.0,109.0,103.0,13.4,1505.3,327.5,-0.7,1.8,2470.412,13.32,0.046,103.7
2020-07-09T01:34:03,42.805,6.029,0.029,-0.025,-0.016,105.0,108.0,103.0,13.3,1505.3,327.4,-0.7,1.8,2470.428,13.32,0.038,130.8
2020-07-09T01:37:03,42.805,6.029,0.025,-0.005,0.001,106.0,110.0,104.0,13.4,1505.3,325.9,-0.7,1.8,2470.447,13.32,0.025,101.3
2020-07-09T01:40:03,42.805,6.029,0.035,0.014,0.001,106.0,109.0,103.0,13.4,1505.3,323.9,-0.7,1.8,2470.413,13.32,0.037,68.2
2020-07-09T01:43:03,42.805,6.029,0.055,0.0,0.003,106.0,108.0,104.0,13.4,1505.3,325.7,-0.7,1.9,2470.416,13.32,0.055,90.0
2020-07-09T01:46:03,42.805,6.029,0.059,0.008,0.001,106.0,108.0,103.0,13.4,1505.3,327.3,-0.7,1.8,2470.404,13.32,0.059,82.3
2020-07-09T01:49:03,42.805,6.029,0.034,0.0,0.004,106.0,111.0,103.0,13.4,1505.3,324.1,-0.7,1.8,2470.467,13.32,0.034,90.0
2020-07-09T01:52:03,42.805,6.029,0.027,0.007,0.004,107.0,110.0,103.0,13.4,1505.3,325.9,-0.7,1.8,2470.425,13.32,0.027,75.5
2020-07-09T01:58:03,42.805,6.029,0.057,-0.005,0.003,107.0,108.0,103.0,13.3,1505.2,323.9,-0.7,1.8,2470.452,13.3,0.057,95.0
2020-07-09T02:04:03,42.805,6.029,0.04,0.005,-0.021,106.0,109.0,104.0,13.4,1505.2,326.3,-0.8,1.8,2470.477,13.3,0.04,82.9
2020-07-09T02:07:03,42.805,6.029,0.046,0.0,-0.002,106.0,109.0,103.0,13.3,1505.3,326.3,-0.7,1.9,2470.46,13.31,0.046,90.0
2020-07-09T02:10:03,42.805,6.029,0.018,-0.01,-0.027,106.0,111.0,102.0,13.3,1505.3,327.7,-0.7,1.8,2470.398,13.31,0.02,119.1
2020-07-09T02:13:03,42.805,6.029,0.041,0.003,0.019,106.0,107.0,103.0,13.4,1505.3,326.7,-0.7,1.8,2470.431,13.32,0.041,85.8
2020-07-09T02:16:03,42.805,6.029,0.036,-0.009,-0.024,105.0,109.0,104.0,13.3,1505.3,324.0,-0.7,1.8,2470.451,13.32,0.037,104.0
2020-07-09T02:19:03,42.805,6.029,0.041,0.004,-0.015,105.0,111.0,104.0,13.4,1505.3,325.1,-0.7,1.8,2470.452,13.32,0.041,84.4
2020-07-09T02:22:03,42.805,6.029,0.06,-0.01,0.018,105.0,110.0,104.0,13.3,1505.3,324.6,-0.7,1.8,2470.404,13.32,0.06,99.5
2020-07-09T02:25:03,42.805,6.029,0.021,-0.01,0.028,105.0,109.0,104.0,13.4,1505.3,326.0,-0.7,1.8,2470.427,13.32,0.023,115.5
2020-07-09T02:28:03,42.805,6.029,0.042,-0.004,-0.017,106.0,111.0,103.0,13.4,1505.3,323.4,-0.7,1.8,2470.402,13.32,0.042,95.4
2020-07-09T02:31:03,42.805,6.029,0.027,-0.03,-0.033,106.0,109.0,103.0,13.4,1505.3,326.2,-0.7,1.8,2470.367,13.32,0.04,138.0
2020-07-09T02:34:03,42.805,6.029,0.042,0.002,-0.002,108.0,110.0,103.0,13.4,1505.3,324.3,-0.7,1.8,2470.385,13.32,0.042,87.3
2020-07-09T02:37:03,42.805,6.029,0.037,0.007,0.016,105.0,109.0,103.0,13.3,1505.3,324.9,-0.7,1.8,2470.366,13.32,0.037,79.3
2020-07-09T02:40:03,42.805,6.029,0.039,-0.029,-0.012,106.0,110.0,102.0,13.3,1505.3,326.8,-0.7,1.8,2470.419,13.32,0.048,126.6
2020-07-09T02:43:03,42.805,6.029,0.039,-0.009,-0.013,106.0,108.0,103.0,13.4,1505.3,328.4,-0.7,1.8,2470.391,13.32,0.04,103.0
2020-07-09T02:46:03,42.805,6.029,0.061,0.007,-0.018,105.0,111.0,103.0,13.4,1505.3,328.1,-0.7,1.8,2470.378,13.32,0.061,83.5
2020-07-09T02:49:03,42.805,6.029,0.044,-0.019,-0.014,106.0,109.0,103.0,13.3,1505.3,328.0,-0.7,1.8,2470.377,13.32,0.047,113.4
2020-07-09T02:52:03,42.805,6.029,0.044,0.021,0.027,106.0,111.0,103.0,13.4,1505.3,325.3,-0.7,1.8,2470.376,13.32,0.048,64.5
2020-07-09T02:55:03,42.805,6.029,0.059,-0.001,0.005,105.0,110.0,103.0,13.4,1505.3,326.1,-0.7,1.8,2470.339,13.32,0.059,91.0
2020-07-09T02:58:03,42.805,6.029,0.051,0.0,-0.02,106.0,108.0,103.0,13.4,1505.3,323.0,-0.7,1.8,2470.335,13.32,0.051,90.0
2020-07-09T03:04:03,42.805,6.029,0.056,-0.014,-0.016,106.0,109.0,102.0,13.3,1505.2,325.1,-0.7,1.8,2470.397,13.3,0.057,104.0
2020-07-09T03:07:03,42.805,6.029,0.023,0.006,-0.013,106.0,109.0,105.0,13.4,1505.3,326.1,-0.7,1.8,2470.389,13.31,0.023,75.4
2020-07-09T03:10:03,42.805,6.029,0.054,-0.002,-0.007,106.0,109.0,103.0,13.3,1505.3,325.9,-0.7,1.8,2470.405,13.31,0.054,92.1
2020-07-09T03:13:03,42.805,6.029,0.033,-0.011,-0.042,107.0,110.0,103.0,13.3,1505.3,324.8,-0.7,1.9,2470.37,13.32,0.034,108.4
2020-07-09T03:16:03,42.805,6.029,0.036,-0.002,-0.005,106.0,110.0,103.0,13.3,1505.3,326.1,-0.7,1.8,2470.398,13.32,0.036,93.2
2020-07-09T03:19:03,42.805,6.029,0.044,-0.008,0.004,107.0,110.0,102.0,13.3,1505.3,326.8,-0.7,1.8,2470.381,13.32,0.044,100.3
2020-07-09T03:22:03,42.805,6.029,0.039,-0.014,0.006,105.0,109.0,104.0,13.3,1505.3,325.2,-0.7,1.8,2470.349,13.32,0.041,109.7
2020-07-09T03:25:03,42.805,6.029,0.053,-0.01,-0.012,106.0,108.0,103.0,13.4,1505.3,325.7,-0.7,1.8,2470.373,13.32,0.053,100.7
2020-07-09T03:28:03,42.805,6.029,0.049,-0.006,-0.006,105.0,107.0,104.0,13.3,1505.3,326.6,-0.7,1.8,2470.356,13.32,0.049,97.0
2020-07-09T03:31:03,42.805,6.029,0.058,-0.011,-0.015,105.0,108.0,102.0,13.4,1505.3,324.7,-0.7,1.8,2470.386,13.32,0.059,100.7
2020-07-09T03:34:03,42.805,6.029,0.031,-0.009,0.003,107.0,107.0,102.0,13.4,1505.3,325.5,-0.7,1.8,2470.373,13.32,0.032,106.2
2020-07-09T03:37:03,42.805,6.029,0.029,-0.016,-0.024,107.0,108.0,104.0,13.4,1505.3,323.0,-0.7,1.8,2470.347,13.32,0.033,118.9
2020-07-09T03:40:03,42.805,6.029,0.031,0.005,0.021,106.0,109.0,102.0,13.3,1505.3,327.8,-0.7,1.8,2470.346,13.32,0.031,80.8
2020-07-09T03:43:03,42.805,6.029,0.038,-0.01,-0.034,105.0,107.0,103.0,13.3,1505.3,326.6,-0.7,1.8,2470.344,13.32,0.039,104.7
2020-07-09T03:46:03,42.805,6.029,0.06,-0.021,-0.036,106.0,109.0,103.0,13.3,1505.3,327.7,-0.7,1.8,2470.401,13.32,0.063,109.3
2020-07-09T03:49:03,42.805,6.029,0.033,0.003,-0.009,107.0,108.0,103.0,13.3,1505.3,324.6,-0.7,1.8,2470.345,13.32,0.033,84.8
2020-07-09T03:52:03,42.805,6.029,0.035,0.007,0.013,105.0,108.0,103.0,13.4,1505.3,324.4,-0.7,1.8,2470.341,13.32,0.035,78.7
2020-07-09T03:55:03,42.805,6.029,0.034,-0.003,-0.025,107.0,109.0,103.0,13.3,1505.3,323.4,-0.7,1.8,2470.33,13.32,0.034,95.0
2020-07-09T03:58:03,42.805,6.029,0.029,0.0,-0.01,106.0,107.0,104.0,13.4,1505.3,324.3,-0.7,1.8,2470.331,13.32,0.028,90.0
2020-07-09T04:04:03,42.805,6.029,0.02,0.0,0.0,106.0,107.0,103.0,13.3,1505.2,325.3,-0.8,1.8,2470.402,13.3,0.02,90.0
2020-07-09T04:07:03,42.805,6.029,0.026,-0.031,-0.014,106.0,108.0,103.0,13.4,1505.3,326.5,-0.7,1.8,2470.377,13.31,0.04,140.0
2020-07-09T04:10:03,42.805,6.029,0.021,0.005,-0.015,106.0,108.0,103.0,13.4,1505.3,324.2,-0.7,1.8,2470.357,13.31,0.021,76.6
2020-07-09T04:13:03,42.805,6.029,0.025,-0.004,0.017,106.0,108.0,103.0,13.4,1505.3,324.8,-0.7,1.8,2470.367,13.32,0.025,99.1
2020-07-09T04:16:03,42.805,6.029,0.025,-0.012,-0.002,106.0,108.0,103.0,13.4,1505.3,326.1,-0.7,1.8,2470.394,13.32,0.027,115.6
2020-07-09T04:19:03,42.805,6.029,0.047,0.003,-0.006,106.0,108.0,102.0,13.4,1505.3,324.9,-0.7,1.9,2470.357,13.32,0.047,86.4
2020-07-09T04:22:03,42.805,6.029,0.027,-0.025,-0.002,106.0,106.0,103.0,13.3,1505.3,325.9,-0.7,1.8,2470.36,13.32,0.036,132.8
2020-07-09T04:25:03,42.805,6.029,0.041,-0.01,0.014,106.0,106.0,103.0,13.4,1505.3,327.3,-0.7,1.8,2470.342,13.32,0.042,103.7
2020-07-09T04:28:03,42.805,6.029,0.031,-0.004,-0.005,106.0,108.0,102.0,13.4,1505.3,323.7,-0.7,1.9,2470.347,13.32,0.031,97.3
2020-07-09T04:31:03,42.805,6.029,0.05,-0.021,-0.02,105.0,108.0,103.0,13.4,1505.3,326.5,-0.7,1.8,2470.3,13.32,0.054,112.8
2020-07-09T04:34:03,42.805,6.029,0.04,-0.015,-0.019,106.0,108.0,102.0,13.4,1505.3,327.6,-0.7,1.8,2470.348,13.32,0.042,110.6
2020-07-09T04:37:03,42.805,6.029,0.034,-0.004,-0.008,104.0,107.0,102.0,13.4,1505.3,326.2,-0.7,1.8,2470.315,13.32,0.034,96.7
2020-07-09T04:40:03,42.805,6.029,0.038,-0.006,-0.004,105.0,108.0,103.0,13.3,1505.3,324.4,-0.7,1.8,2470.355,13.32,0.038,99.0
2020-07-09T04:43:03,42.805,6.029,0.041,-0.025,0.0,106.0,107.0,102.0,13.4,1505.3,326.2,-0.7,1.8,2470.344,13.32,0.048,121.4
2020-07-09T04:46:03,42.805,6.029,0.061,-0.007,0.001,106.0,106.0,103.0,13.4,1505.3,326.3,-0.7,1.8,2470.319,13.32,0.061,96.5
2020-07-09T04:49:03,42.805,6.029,0.018,-0.008,-0.039,104.0,108.0,103.0,13.4,1505.3,326.5,-0.7,1.8,2470.334,13.32,0.019,114.0
2020-07-09T04:52:03,42.805,6.029,0.02,-0.009,-0.039,106.0,108.0,102.0,13.4,1505.3,326.4,-0.7,1.9,2470.326,13.32,0.021,114.2
2020-07-09T04:55:03,42.805,6.029,0.041,0.005,0.0,106.0,107.0,103.0,13.3,1505.3,326.7,-0.7,1.8,2470.331,13.32,0.041,83.0
2020-07-09T04:58:03,42.805,6.029,0.035,-0.021,0.014,104.0,107.0,102.0,13.4,1505.3,326.6,-0.7,1.8,2470.355,13.32,0.04,121.0
2020-07-09T05:04:03,42.805,6.029,0.025,-0.001,-0.02,105.0,107.0,103.0,13.3,1505.2,323.9,-0.7,1.9,2470.377,13.3,0.025,92.3
2020-07-09T05:07:03,42.805,6.029,0.038,-0.027,-0.029,105.0,108.0,102.0,13.3,1505.3,327.5,-0.7,1.8,2470.354,13.31,0.046,125.4
2020-07-09T05:10:03,42.805,6.029,0.065,-0.022,-0.014,106.0,106.0,102.0,13.3,1505.3,326.0,-0.7,1.8,2470.356,13.31,0.068,108.7
2020-07-09T05:13:03,42.805,6.029,0.023,-0.008,-0.005,105.0,108.0,103.0,13.3,1505.3,325.4,-0.7,1.9,2470.347,13.32,0.024,109.2
2020-07-09T05:16:03,42.805,6.029,0.017,-0.008,-0.016,105.0,107.0,103.0,13.3,1505.3,328.0,-0.7,1.8,2470.342,13.32,0.018,115.2
2020-07-09T05:19:03,42.805,6.029,0.019,-0.012,-0.021,105.0,106.0,102.0,13.4,1505.3,323.2,-0.7,1.8,2470.375,13.32,0.022,122.3
2020-07-09T05:22:03,42.805,6.029,0.038,-0.033,-0.005,106.0,108.0,102.0,13.4,1505.3,325.9,-0.7,1.9,2470.344,13.32,0.05,131.0
2020-07-09T05:25:03,42.805,6.029,0.031,-0.008,-0.019,104.0,109.0,103.0,13.4,1505.3,325.9,-0.7,1.8,2470.374,13.32,0.032,104.5
2020-07-09T05:28:03,42.805,6.029,0.025,-0.004,-0.002,105.0,108.0,104.0,13.4,1505.3,326.9,-0.7,1.8,2470.347,13.32,0.025,99.1
2020-07-09T05:31:03,42.805,6.029,0.042,0.002,-0.031,106.0,108.0,102.0,13.4,1505.3,326.8,-0.7,1.9,2470.329,13.32,0.042,87.3
2020-07-09T05:34:03,42.805,6.029,0.049,0.013,0.0,107.0,107.0,102.0,13.4,1505.3,323.9,-0.7,1.8,2470.339,13.32,0.05,75.1
2020-07-09T05:37:03,42.805,6.029,0.038,0.015,-0.009,105.0,108.0,102.0,13.4,1505.3,324.3,-0.7,1.8,2470.334,13.32,0.04,68.5
2020-07-09T05:40:03,42.805,6.029,0.029,-0.001,-0.029,105.0,108.0,102.0,13.4,1505.3,325.4,-0.7,1.9,2470.333,13.32,0.029,92.0
2020-07-09T05:43:03,42.805,6.029,0.033,-0.004,-0.032,105.0,107.0,102.0,13.3,1505.3,327.2,-0.7,1.8,2470.339,13.32,0.033,96.9
2020-07-09T05:46:03,42.805,6.029,0.039,-0.006,-0.006,105.0,106.0,102.0,13.3,1505.3,324.6,-0.7,1.8,2470.309,13.32,0.039,98.7
2020-07-09T05:49:03,42.805,6.029,0.048,-0.023,-0.004,104.0,107.0,102.0,13.4,1505.3,325.5,-0.7,1.8,2470.3,13.32,0.053,115.6
2020-07-09T05:52:03,42.805,6.029,0.028,-0.004,0.0,105.0,107.0,102.0,13.4,1505.3,328.1,-0.7,1.8,2470.358,13.32,0.028,98.1
2020-07-09T05:55:03,42.805,6.029,0.03,-0.004,0.001,105.0,108.0,101.0,13.4,1505.3,324.7,-0.7,1.8,2470.34,13.32,0.03,97.6
2020-07-09T05:58:03,42.805,6.029,0.045,-0.012,-0.004,104.0,109.0,102.0,13.4,1505.3,327.4,-0.7,1.8,2470.365,13.32,0.046,104.9
2020-07-09T06:04:03,42.805,6.029,0.05,0.016,-0.014,105.0,107.0,102.0,13.4,1505.2,325.1,-0.7,1.8,2470.323,13.3,0.052,72.3
2020-07-09T06:07:03,42.805,6.029,0.026,-0.014,-0.014,106.0,107.0,102.0,13.4,1505.3,326.2,-0.8,1.8,2470.341,13.31,0.029,118.3
2020-07-09T06:10:03,42.805,6.029,0.057,-0.009,-0.017,105.0,107.0,103.0,13.3,1505.3,325.5,-0.7,1.9,2470.401,13.32,0.057,99.0
2020-07-09T06:13:03,42.805,6.029,0.045,-0.003,-0.007,103.0,107.0,102.0,13.4,1505.3,326.1,-0.7,1.8,2470.365,13.32,0.045,93.8
2020-07-09T06:16:03,42.805,6.029,0.033,0.015,-0.018,107.0,107.0,101.0,13.4,1505.3,323.4,-0.7,1.8,2470.35,13.32,0.036,65.6
2020-07-09T06:19:03,42.805,6.029,0.011,-0.007,-0.027,104.0,106.0,102.0,13.4,1505.3,325.4,-0.7,1.9,2470.321,13.32,0.013,122.5
2020-07-09T06:22:03,42.805,6.029,0.045,0.007,-0.002,105.0,107.0,102.0,13.4,1505.3,328.0,-0.7,1.9,2470.355,13.32,0.045,81.2
2020-07-09T06:25:03,42.805,6.029,0.02,-0.012,-0.028,105.0,108.0,101.0,13.4,1505.3,326.1,-0.7,1.8,2470.358,13.32,0.023,121.0
2020-07-09T06:28:03,42.805,6.029,0.039,-0.017,-0.01,103.0,108.0,102.0,13.4,1505.3,325.5,-0.7,1.8,2470.348,13.32,0.042,113.5
2020-07-09T06:31:03,42.805,6.029,0.038,0.002,-0.013,104.0,106.0,101.0,13.4,1505.3,326.9,-0.7,1.8,2470.347,13.32,0.038,87.0
2020-07-09T06:34:03,42.805,6.029,0.056,0.003,0.004,102.0,107.0,101.0,13.4,1505.3,325.1,-0.7,1.8,2470.417,13.32,0.056,86.9
2020-07-09T06:37:03,42.805,6.029,0.039,0.001,0.001,103.0,107.0,101.0,13.4,1505.3,326.1,-0.7,1.8,2470.351,13.32,0.039,88.5
2020-07-09T06:40:03,42.805,6.029,0.04,-0.007,-0.032,105.0,106.0,101.0,13.3,1505.3,323.1,-0.7,1.8,2470.366,13.32,0.04,99.9
2020-07-09T06:43:03,42.805,6.029,0.018,-0.004,-0.021,103.0,107.0,102.0,13.4,1505.3,324.8,-0.7,1.8,2470.319,13.32,0.018,102.5
2020-07-09T06:49:03,42.805,6.029,0.011,0.0,-0.026,102.0,105.0,101.0,13.4,1505.2,325.0,-0.7,1.8,2470.432,13.3,0.011,90.0
2020-07-09T06:52:03,42.805,6.029,0.021,-0.014,-0.039,103.0,104.0,101.0,13.4,1505.3,324.1,-0.7,1.8,2470.381,13.31,0.025,123.7
2020-07-09T06:55:03,42.805,6.029,0.058,0.0,0.01,103.0,104.0,101.0,13.3,1505.3,327.5,-0.8,1.8,2470.319,13.31,0.057,90.0
2020-07-09T06:58:03,42.805,6.029,0.033,-0.004,0.003,103.0,104.0,102.0,13.4,1505.3,326.2,-0.7,1.7,2470.398,13.32,0.033,96.9
2020-07-09T07:04:03,42.805,6.029,0.011,0.0,-0.018,104.0,105.0,101.0,13.4,1505.2,326.9,-0.7,1.8,2470.435,13.3,0.011,90.0
2020-07-09T07:07:03,42.805,6.029,0.017,0.017,-0.015,104.0,109.0,100.0,13.4,1505.3,324.9,-0.7,1.9,2470.446,13.31,0.024,45.0
2020-07-09T07:10:03,42.805,6.029,0.023,0.003,0.017,104.0,106.0,102.0,13.3,1505.3,325.9,-0.7,1.8,2470.413,13.32,0.023,82.6
2020-07-09T07:13:03,42.805,6.029,0.029,-0.003,0.001,105.0,107.0,100.0,13.4,1505.3,326.0,-0.7,1.8,2470.387,13.32,0.029,95.9
2020-07-09T07:16:03,42.805,6.029,0.038,0.002,-0.033,103.0,105.0,102.0,13.4,1505.3,326.2,-0.7,1.8,2470.407,13.32,0.038,87.0
2020-07-09T07:19:03,42.805,6.029,0.033,0.005,0.02,104.0,105.0,102.0,13.4,1505.3,324.8,-0.7,1.8,2470.413,13.32,0.033,81.4
2020-07-09T07:22:03,42.805,6.029,0.019,-0.012,-0.019,104.0,106.0,102.0,13.4,1505.3,326.9,-0.7,1.8,2470.401,13.32,0.022,122.3
2020-07-09T07:25:03,42.805,6.029,-0.015,0.0,-0.018,103.0,107.0,101.0,13.3,1505.3,324.9,-0.7,1.8,2470.393,13.32,0.015,270.0
2020-07-09T07:28:03,42.805,6.029,0.036,-0.001,0.007,105.0,105.0,101.0,13.4,1505.3,326.2,-0.7,1.8,2470.381,13.32,0.036,91.6
2020-07-09T07:31:03,42.805,6.029,0.041,0.002,0.001,103.0,107.0,101.0,13.3,1505.3,328.3,-0.7,1.8,2470.372,13.32,0.041,87.2
2020-07-09T07:34:03,42.805,6.029,0.026,0.007,-0.02,103.0,107.0,101.0,13.4,1505.3,325.9,-0.7,1.8,2470.416,13.32,0.026,74.9
2020-07-09T07:37:03,42.805,6.029,0.023,0.004,-0.02,103.0,106.0,101.0,13.3,1505.3,325.6,-0.7,1.8,2470.375,13.32,0.023,80.1
2020-07-09T07:40:03,42.805,6.029,0.054,0.01,0.02,103.0,107.0,101.0,13.4,1505.3,326.5,-0.7,1.8,2470.34,13.32,0.054,79.5
2020-07-09T07:43:03,42.805,6.029,0.027,0.003,-0.016,103.0,107.0,101.0,13.4,1505.3,322.6,-0.7,1.8,2470.394,13.32,0.027,83.7
2020-07-09T07:46:03,42.805,6.029,0.03,-0.008,-0.008,103.0,107.0,101.0,13.4,1505.3,323.9,-0.7,1.8,2470.395,13.32,0.031,104.9
2020-07-09T07:49:03,42.805,6.029,0.024,0.026,0.015,103.0,108.0,101.0,13.3,1505.3,323.2,-0.7,1.8,2470.349,13.32,0.035,42.7
2020-07-09T07:52:03,42.805,6.029,0.04,0.01,-0.019,102.0,107.0,102.0,13.4,1505.3,326.6,-0.7,1.8,2470.426,13.32,0.041,76.0
2020-07-09T07:55:03,42.805,6.029,0.034,-0.005,-0.012,105.0,107.0,101.0,13.4,1505.3,326.9,-0.7,1.8,2470.355,13.33,0.034,98.4
2020-07-09T07:58:03,42.805,6.029,0.02,-0.016,-0.014,102.0,107.0,102.0,13.4,1505.3,326.8,-0.7,1.9,2470.436,13.32,0.025,128.7
2020-07-09T08:04:03,42.805,6.029,0.02,0.009,-0.002,103.0,108.0,102.0,13.4,1505.3,323.3,-0.7,1.8,2470.465,13.31,0.021,65.8
2020-07-09T08:07:03,42.805,6.029,0.024,0.012,0.001,102.0,107.0,100.0,13.4,1505.3,325.3,-0.7,1.9,2470.423,13.31,0.026,63.4
2020-07-09T08:10:03,42.805,6.029,0.031,0.013,0.025,102.0,107.0,101.0,13.4,1505.3,328.1,-0.7,1.8,2470.437,13.32,0.033,67.3
2020-07-09T08:13:03,42.805,6.029,0.045,0.008,0.002,104.0,107.0,103.0,13.4,1505.3,324.6,-0.7,1.9,2470.396,13.32,0.045,79.9
2020-07-09T08:16:03,42.805,6.029,0.019,0.024,0.009,103.0,107.0,101.0,13.3,1505.3,324.9,-0.7,1.8,2470.466,13.32,0.03,38.4
2020-07-09T08:22:03,42.805,6.029,0.009,-0.003,0.019,103.0,106.0,100.0,13.4,1505.2,324.8,-0.8,1.8,2470.503,13.3,0.009,108.4
2020-07-09T08:25:03,42.805,6.029,0.027,0.007,-0.003,103.0,108.0,102.0,13.3,1505.3,327.2,-0.7,1.9,2470.495,13.31,0.027,75.5
2020-07-09T08:28:03,42.805,6.029,0.032,0.009,-0.015,103.0,106.0,101.0,13.4,1505.3,325.1,-0.7,1.8,2470.444,13.32,0.033,74.3
2020-07-09T08:31:03,42.805,6.029,0.045,0.006,0.021,104.0,106.0,101.0,13.4,1505.3,327.4,-0.7,1.9,2470.447,13.32,0.045,82.4
2020-07-09T08:34:03,42.805,6.029,0.015,0.005,-0.022,105.0,108.0,101.0,13.4,1505.3,327.2,-0.7,1.8,2470.438,13.32,0.015,71.6
2020-07-09T08:37:03,42.805,6.029,0.033,0.024,0.035,104.0,108.0,100.0,13.4,1505.3,322.9,-0.7,1.8,2470.443,13.32,0.04,54.0
2020-07-09T08:40:03,42.805,6.029,0.002,0.017,-0.008,104.0,107.0,100.0,13.3,1505.3,328.0,-0.7,1.8,2470.445,13.32,0.017,6.7
2020-07-09T08:43:03,42.805,6.029,0.019,0.007,0.0,104.0,107.0,101.0,13.4,1505.3,324.7,-0.7,1.8,2470.407,13.32,0.02,69.8
2020-07-09T08:46:03,42.805,6.029,0.021,0.006,-0.02,104.0,107.0,101.0,13.3,1505.3,323.8,-0.7,1.8,2470.459,13.32,0.021,74.1
2020-07-09T08:49:03,42.805,6.029,0.024,0.011,-0.016,104.0,108.0,101.0,13.3,1505.3,326.1,-0.7,1.8,2470.415,13.32,0.026,65.4
2020-07-09T08:52:03,42.805,6.029,0.021,-0.001,-0.02,102.0,106.0,101.0,13.4,1505.3,326.3,-0.7,1.8,2470.403,13.33,0.021,92.7
2020-07-09T08:55:03,42.805,6.029,0.03,0.006,0.013,104.0,108.0,102.0,13.4,1505.3,323.9,-0.7,1.8,2470.445,13.33,0.03,78.7
2020-07-09T08:58:03,42.805,6.029,0.019,0.0,-0.021,105.0,107.0,101.0,13.4,1505.3,325.9,-0.7,1.8,2470.421,13.33,0.019,90.0
2020-07-09T09:01:03,42.805,6.029,0.03,-0.009,0.01,104.0,107.0,101.0,13.4,1505.3,327.4,-0.7,1.8,2470.408,13.33,0.031,106.7
2020-07-09T09:04:03,42.805,6.029,0.044,0.004,-0.01,103.0,108.0,102.0,13.4,1505.3,326.0,-0.7,1.8,2470.438,13.33,0.044,84.8
2020-07-09T09:07:03,42.805,6.029,-0.005,-0.009,-0.031,103.0,108.0,100.0,13.4,1505.3,327.7,-0.7,1.9,2470.449,13.32,0.01,209.1
2020-07-09T09:10:03,42.805,6.029,0.052,0.009,0.01,103.0,109.0,100.0,13.3,1505.3,324.6,-0.7,1.9,2470.417,13.32,0.052,80.2
2020-07-09T09:13:03,42.805,6.029,0.059,0.018,0.031,103.0,108.0,102.0,13.4,1505.3,326.7,-0.7,1.8,2470.415,13.32,0.061,73.0
2020-07-09T09:16:03,42.805,6.029,0.051,-0.008,0.015,105.0,109.0,102.0,13.4,1505.3,323.9,-0.7,1.8,2470.433,13.32,0.051,98.9
2020-07-09T09:19:03,42.805,6.029,0.061,0.02,0.014,102.0,109.0,101.0,13.4,1505.3,324.0,-0.7,1.9,2470.44,13.32,0.064,71.9
2020-07-09T09:22:03,42.805,6.029,0.05,0.011,0.027,104.0,109.0,102.0,13.3,1505.3,325.8,-0.7,1.8,2470.394,13.32,0.051,77.6
2020-07-09T09:25:03,42.805,6.029,0.046,0.01,0.015,103.0,110.0,102.0,13.4,1505.3,325.8,-0.7,1.8,2470.42,13.32,0.047,77.7
2020-07-09T09:28:03,42.805,6.029,0.014,0.009,0.021,104.0,109.0,101.0,13.4,1505.3,325.3,-0.7,1.8,2470.44,13.32,0.016,57.3
2020-07-09T09:31:03,42.805,6.029,0.034,0.001,0.001,103.0,109.0,101.0,13.4,1505.3,325.7,-0.7,1.8,2470.429,13.32,0.034,88.3
2020-07-09T09:34:03,42.805,6.029,0.021,0.016,0.01,103.0,108.0,102.0,13.4,1505.3,324.5,-0.7,1.8,2470.397,13.33,0.026,52.7
2020-07-09T09:37:03,42.805,6.029,0.055,0.005,-0.012,104.0,108.0,101.0,13.4,1505.3,323.3,-0.7,1.8,2470.413,13.33,0.055,84.8
2020-07-09T09:40:03,42.805,6.029,0.061,-0.003,-0.014,103.0,108.0,102.0,13.3,1505.3,326.5,-0.7,1.9,2470.389,13.33,0.061,92.8
2020-07-09T09:43:03,42.805,6.029,0.046,0.021,-0.002,103.0,106.0,101.0,13.4,1505.3,325.1,-0.7,1.8,2470.434,13.32,0.05,65.5
2020-07-09T09:46:03,42.805,6.029,0.035,0.009,-0.016,104.0,105.0,101.0,13.4,1505.3,326.2,-0.7,1.8,2470.419,13.32,0.036,75.6
2020-07-09T09:49:03,42.805,6.029,0.029,0.029,0.012,104.0,108.0,100.0,13.3,1505.3,326.6,-0.7,1.8,2470.385,13.32,0.041,45.0
2020-07-09T09:55:03,42.805,6.029,0.032,0.011,0.008,105.0,107.0,101.0,13.4,1505.2,324.1,-0.7,1.8,2470.428,13.3,0.033,71.0
2020-07-09T09:58:03,42.805,6.029,0.06,0.014,0.009,104.0,109.0,102.0,13.3,1505.3,327.3,-0.7,1.8,2470.443,13.31,0.061,76.9
2020-07-09T10:04:03,42.805,6.029,0.051,0.017,0.029,103.0,110.0,102.0,13.4,1505.2,328.0,-0.7,1.8,2470.499,13.3,0.053,71.6
2020-07-09T10:07:03,42.805,6.029,0.032,-0.003,-0.015,103.0,111.0,101.0,13.3,1505.3,325.2,-0.7,1.8,2470.451,13.31,0.032,95.4
2020-07-09T10:10:03,42.805,6.029,0.044,0.009,-0.018,104.0,111.0,101.0,13.4,1505.3,326.1,-0.7,1.8,2470.418,13.31,0.044,78.4
2020-07-09T10:13:03,42.805,6.029,0.045,0.02,0.028,105.0,109.0,100.0,13.3,1505.3,323.9,-0.7,1.8,2470.451,13.32,0.049,66.0